Weather History for Bilbao, Spain

Change the Weather History Date:

Saturday, May 25, 2013

  Actual Average Record
Temperature  
Mean Temperature 55 °F -  
Max Temperature 60 °F 74 °F 100 °F (2005)
Min Temperature 48 °F 56 °F 48 °F (2006)
Degree Days  
Heating Degree Days 10    
Growing Degree Days 5 (Base 50)    
Moisture  
Dew Point 44 °F    
Average Humidity 67    
Maximum Humidity 87    
Minimum Humidity 51    
Precipitation  
Precipitation 0.00 in - - ()
Sea Level Pressure  
Sea Level Pressure 30.19 in    
Wind  
Wind Speed 8 mph ()    
Max Wind Speed 16 mph    
Max Gust Speed -    
Visibility 6.2 miles    
Events Rain    
Averages and records for this station are not official NWS values.
T = Trace of Precipitation, MM = Missing Value Source: Averaged Metar Reports

Daily Weather History Graph

Daily Weather History Graph

Search for Another Location

Airport:

Trip Planner

Search our weather history database for the weather conditions in past years. The results will help you decide how hot, cold, wet, or windy it might be!

Date:

Astronomy

May. 25, 2013 Rise Set
Actual Time 6:38 AM CEST 9:39 PM CEST
Civil Twilight 6:04 AM CEST 10:13 PM CEST
Nautical Twilight 5:21 AM CEST 10:56 PM CEST
Astronomical Twilight 4:29 AM CEST 11:48 PM CEST
Moon 10:11 PM CEST (5/25) 6:52 AM CEST (5/25)
Length of Visible Light 16h 08m
Length of Day
15h 00m
Full, 100% of the Moon is Illuminated
May 25
Full
May 31
Last Quarter
Jun 8
New
Jun 16
First Quarter
Jun 23
Full

Hourly Weather History & Observations

Time (CEST) Temp. Dew Point Humidity Pressure Visibility Wind Dir Wind Speed Gust Speed Precip Events Conditions
5:00 AM 50.0 °F 46.4 °F 87% 30.15 in 6.2 mi Variable 2.3 mph - N/A Rain Light Rain
5:30 AM 51.8 °F 46.4 °F 82% 30.15 in 6.2 mi NNW 13.8 mph - N/A   Mostly Cloudy
6:00 AM 51.8 °F 42.8 °F 71% 30.15 in 6.2 mi NNW 12.7 mph - N/A   Mostly Cloudy
6:30 AM 51.8 °F 42.8 °F 71% 30.15 in 6.2 mi NW 16.1 mph - N/A   Mostly Cloudy
7:00 AM 51.8 °F 42.8 °F 71% 30.15 in 6.2 mi WNW 11.5 mph - N/A   Mostly Cloudy
7:30 AM 51.8 °F 42.8 °F 71% 30.15 in 6.2 mi WNW 8.1 mph - N/A   Mostly Cloudy
8:00 AM 50.0 °F 42.8 °F 76% 30.15 in 6.2 mi WNW 8.1 mph - N/A Rain Light Rain
8:30 AM 50.0 °F 44.6 °F 82% 30.18 in 6.2 mi Variable 2.3 mph - N/A Rain Light Rain
9:00 AM 51.8 °F 46.4 °F 82% 30.18 in 6.2 mi NNW 3.5 mph - N/A   Mostly Cloudy
9:30 AM 51.8 °F 44.6 °F 76% 30.18 in 6.2 mi NW 10.4 mph - N/A   Mostly Cloudy
10:00 AM 53.6 °F 44.6 °F 72% 30.18 in 6.2 mi NW 10.4 mph - N/A   Mostly Cloudy
10:30 AM 55.4 °F 44.6 °F 67% 30.18 in 6.2 mi NW 15.0 mph - N/A   Mostly Cloudy
11:00 AM 55.4 °F 46.4 °F 72% 30.18 in 6.2 mi NW 13.8 mph - N/A   Mostly Cloudy
11:30 AM 55.4 °F 44.6 °F 67% 30.21 in 6.2 mi NNW 8.1 mph - N/A   Mostly Cloudy
12:00 PM 55.4 °F 44.6 °F 67% 30.21 in 6.2 mi NNW 9.2 mph - N/A   Mostly Cloudy
12:30 PM 57.2 °F 44.6 °F 63% 30.21 in 6.2 mi NNW 11.5 mph - N/A   Mostly Cloudy
1:00 PM 57.2 °F 42.8 °F 59% 30.21 in 6.2 mi NNW 13.8 mph - N/A   Mostly Cloudy
1:30 PM 57.2 °F 42.8 °F 59% 30.21 in 6.2 mi NNW 12.7 mph - N/A   Mostly Cloudy
2:00 PM 59.0 °F 42.8 °F 55% 30.21 in 6.2 mi NW 12.7 mph - N/A   Mostly Cloudy
2:30 PM 59.0 °F 42.8 °F 55% 30.21 in 6.2 mi NW 12.7 mph - N/A   Mostly Cloudy
3:00 PM 59.0 °F 44.6 °F 59% 30.21 in 6.2 mi NW 11.5 mph - N/A   Mostly Cloudy
3:30 PM 59.0 °F 41.0 °F 51% 30.21 in 6.2 mi NW 11.5 mph - N/A   Mostly Cloudy
4:00 PM 60.8 °F 42.8 °F 52% 30.21 in 6.2 mi NW 12.7 mph - N/A   Scattered Clouds
4:30 PM 59.0 °F 42.8 °F 55% 30.21 in 6.2 mi NNW 12.7 mph - N/A   Mostly Cloudy
5:00 PM 59.0 °F 42.8 °F 55% 30.21 in 6.2 mi NW 11.5 mph - N/A   Mostly Cloudy
5:30 PM 59.0 °F 42.8 °F 55% 30.21 in 6.2 mi NNW 9.2 mph - N/A   Mostly Cloudy
6:00 PM 59.0 °F 44.6 °F 59% 30.21 in 6.2 mi North 9.2 mph - N/A   Mostly Cloudy
6:30 PM 57.2 °F 44.6 °F 63% 30.21 in 6.2 mi NW 6.9 mph - N/A   Mostly Cloudy
7:00 PM 57.2 °F 42.8 °F 59% 30.21 in 6.2 mi NW 8.1 mph - N/A   Mostly Cloudy
7:30 PM 57.2 °F 44.6 °F 63% 30.21 in 6.2 mi North 5.8 mph - N/A   Mostly Cloudy
8:00 PM 57.2 °F 44.6 °F 63% 30.21 in 6.2 mi NNE 4.6 mph - N/A   Mostly Cloudy
8:30 PM 55.4 °F 42.8 °F 63% 30.21 in 6.2 mi NNE 4.6 mph - N/A   Mostly Cloudy
9:00 PM 55.4 °F 42.8 °F 63% 30.21 in 6.2 mi NE 3.5 mph - N/A   Scattered Clouds
9:30 PM 53.6 °F 44.6 °F 72% 30.21 in 6.2 mi Variable 2.3 mph - N/A   Scattered Clouds
10:00 PM 51.8 °F 44.6 °F 76% 30.21 in 6.2 mi ENE 3.5 mph - N/A   Scattered Clouds
10:30 PM 50.0 °F 42.8 °F 76% 30.21 in 6.2 mi Variable 2.3 mph - N/A   Scattered Clouds
11:00 PM 50.0 °F 42.8 °F 76% 30.21 in 6.2 mi Variable 2.3 mph - N/A   Scattered Clouds
11:30 PM 48.2 °F 44.6 °F 87% 30.21 in 6.2 mi East 3.5 mph - N/A   Scattered Clouds